Date String (YYYY-MM-DD hh:mm:ss) UTC,Instrument flags,Ambient pressure (hPa),Sample flow (lpm),Bypass flow (lpm),Sample temperature (°C),Ambient temperature (°C),ASC tube jacket temperature (°C),LED temperature (°C),Box temperature (°C),Sample RH (%),Span deviation,Mass concentration (μg/m³),Mass concentration (μg/m³),Mass concentration (μg/m³)
DateTimeUTC,F1_M11,P_M11,Q1_M11,Q2_M11,T1_M11,T2_M11,T3_M11,T4_M11,T5_M11,U1_M11,ZSPAN_M11,X0_M11,X2_M11,X1_M11
2022-10-12 05:00:00,,0826.5,4.99,0.00,29.3,27.4,00.0,38.2,31.0,16.6,0000.0,0013.76,0005.02,0004.05
2022-10-12 05:01:00,,0826.5,5.00,0.00,29.3,27.5,00.0,38.2,31.0,16.6,0000.0,0013.63,0004.99,0004.05
2022-10-12 05:02:00,,0826.5,5.01,0.00,29.3,27.6,00.0,38.2,31.0,16.6,0000.0,0012.94,0004.92,0004.02
2022-10-12 05:03:00,,0826.5,4.99,0.00,29.3,27.6,00.0,38.2,31.0,16.6,0000.0,0013.49,0004.94,0004.00
2022-10-12 05:04:00,,0826.5,5.01,0.00,29.3,27.7,00.0,38.2,31.1,16.6,0000.0,0013.78,0004.93,0004.00
2022-10-12 05:05:00,,0826.5,5.00,0.00,29.3,27.7,00.0,38.2,31.0,16.6,0000.0,0013.82,0004.89,0003.99
2022-10-12 05:06:00,,0826.5,4.99,0.00,29.3,27.6,00.0,38.2,31.0,16.6,0000.0,0014.17,0004.85,0003.98
2022-10-12 05:07:00,,0826.5,5.01,0.00,29.2,27.5,00.0,38.2,30.9,16.7,0000.0,0013.79,0004.88,0003.99
2022-10-12 05:08:00,,0826.5,5.00,0.00,29.2,27.3,00.0,38.2,30.9,16.7,0000.0,0013.74,0004.90,0003.99
2022-10-12 05:09:00,,0826.5,4.99,0.00,29.2,27.3,00.0,38.1,30.8,16.7,0000.0,0012.49,0004.89,0004.00
2022-10-12 05:10:00,,0826.5,4.99,0.00,29.1,27.2,00.0,38.1,30.8,16.7,0000.0,0011.93,0004.87,0004.00
2022-10-12 05:11:00,,0826.5,5.01,0.00,29.1,27.1,00.0,38.1,30.7,16.8,0000.0,0012.36,0004.88,0004.00
2022-10-12 05:12:00,,0826.4,5.01,0.00,29.1,27.1,00.0,38.1,30.7,16.8,0000.0,0013.78,0004.87,0004.00
2022-10-12 05:13:00,,0826.4,5.00,0.00,29.1,27.1,00.0,38.1,30.7,16.8,0000.0,0013.89,0004.90,0004.01
2022-10-12 05:14:00,,0826.3,4.99,0.00,29.0,27.2,00.0,38.0,30.7,16.8,0000.0,0013.79,0004.90,0004.01
2022-10-12 05:15:00,,0826.3,5.02,0.00,29.0,27.2,00.0,38.0,30.8,16.8,0000.0,0013.11,0004.92,0004.01
2022-10-12 05:16:00,,0826.3,5.00,0.00,29.0,27.3,00.0,38.0,30.8,16.8,0000.0,0013.24,0004.98,0004.02
2022-10-12 05:17:00,,0826.2,4.98,0.00,29.0,27.4,00.0,38.0,30.8,16.8,0000.0,0012.94,0005.03,0004.03
2022-10-12 05:18:00,,0826.2,5.00,0.00,29.0,27.3,00.0,38.0,30.8,16.8,0000.0,0012.80,0005.03,0004.04
2022-10-12 05:19:00,,0826.2,5.01,0.00,29.0,27.3,00.0,38.0,30.8,16.8,0000.0,0013.25,0005.03,0004.04
2022-10-12 05:20:00,,0826.2,4.99,0.00,29.0,27.3,00.0,38.0,30.7,16.8,0000.0,0013.56,0005.07,0004.04
2022-10-12 05:21:00,,0826.2,5.00,0.00,29.0,27.3,00.0,37.9,30.7,16.8,0000.0,0014.02,0005.11,0004.05
2022-10-12 05:22:00,,0826.2,5.01,0.00,29.0,27.3,00.0,37.9,30.7,16.8,0000.0,0014.33,0005.12,0004.05
2022-10-12 05:23:00,,0826.2,4.99,0.00,29.0,27.2,00.0,37.9,30.7,16.9,0000.0,0013.66,0005.11,0004.06
2022-10-12 05:24:00,,0826.2,5.01,0.00,28.9,27.2,00.0,37.9,30.7,16.9,0000.0,0012.63,0005.13,0004.08
2022-10-12 05:25:00,,0826.1,5.01,0.00,28.9,27.2,00.0,37.9,30.6,16.9,0000.0,0012.56,0005.13,0004.09
2022-10-12 05:26:00,,0826.1,4.98,0.00,28.9,27.1,00.0,37.9,30.6,16.9,0000.0,0012.53,0005.15,0004.11
2022-10-12 05:27:00,,0826.2,5.01,0.00,28.9,27.2,00.0,37.9,30.6,16.9,0000.0,0012.07,0005.14,0004.13
2022-10-12 05:28:00,,0826.1,4.99,0.00,28.9,27.2,00.0,37.9,30.6,16.9,0000.1,0012.12,0005.16,0004.14
2022-10-12 05:29:00,,0826.2,5.00,0.00,28.9,27.1,00.0,37.8,30.6,17.0,0001.4,0012.21,0005.16,0004.15
2022-10-12 05:30:00,,0826.2,5.00,0.00,28.9,27.0,00.0,37.8,30.6,17.0,0001.6,0011.68,0005.13,0004.16
2022-10-12 05:31:00,,0826.2,5.00,0.00,28.8,26.9,00.0,37.8,30.5,17.0,0001.4,0011.06,0005.12,0004.17
2022-10-12 05:32:00,,0826.2,5.00,0.00,28.8,26.9,00.0,37.8,30.5,17.0,0001.6,0010.80,0005.09,0004.19
2022-10-12 05:33:00,,0826.2,4.99,0.00,28.8,26.9,00.0,37.8,30.5,17.0,0001.7,0010.00,0005.08,0004.20
2022-10-12 05:34:00,,0826.2,5.00,0.00,28.8,26.8,00.0,37.8,30.5,17.1,0000.3,0010.54,0005.10,0004.22
2022-10-12 05:35:00,,0826.1,5.01,0.00,28.7,26.7,00.0,37.7,30.4,17.1,0000.0,0010.98,0005.12,0004.23
2022-10-12 05:36:00,,0826.1,4.99,0.00,28.7,26.8,00.0,37.7,30.4,17.1,0000.0,0012.15,0005.17,0004.25
2022-10-12 05:37:00,,0826.1,5.00,0.00,28.7,26.8,00.0,37.7,30.4,17.1,0000.0,0012.39,0005.18,0004.25
2022-10-12 05:38:00,,0826.1,5.00,0.00,28.7,26.7,00.0,37.7,30.3,17.2,0000.0,0012.97,0005.21,0004.25
2022-10-12 05:39:00,,0826.0,4.99,0.00,28.6,26.6,00.0,37.7,30.3,17.2,0000.0,0013.21,0005.22,0004.27
2022-10-12 05:40:00,,0826.0,5.00,0.00,28.6,26.7,00.0,37.6,30.3,17.2,0000.0,0013.20,0005.22,0004.28
2022-10-12 05:41:00,,0826.0,5.00,0.00,28.6,26.6,00.0,37.6,30.3,17.2,0000.0,0013.48,0005.23,0004.29
2022-10-12 05:42:00,,0826.0,5.00,0.00,28.6,26.5,00.0,37.6,30.3,17.3,0000.0,0013.50,0005.24,0004.29
2022-10-12 05:43:00,,0826.0,5.00,0.00,28.6,26.5,00.0,37.6,30.2,17.3,0000.0,0013.64,0005.27,0004.29
2022-10-12 05:44:00,,0826.0,4.99,0.00,28.5,26.5,00.0,37.6,30.2,17.3,0000.0,0013.70,0005.33,0004.30
2022-10-12 05:45:00,,0826.1,5.00,0.00,28.5,26.5,00.0,37.5,30.2,17.4,0000.0,0013.10,0005.39,0004.30
2022-10-12 05:46:00,,0826.0,5.01,0.00,28.5,26.5,00.0,37.5,30.2,17.4,0000.0,0012.69,0005.44,0004.30
2022-10-12 05:47:00,,0826.0,5.00,0.00,28.5,26.5,00.0,37.5,30.2,17.4,0000.0,0011.78,0005.45,0004.29
2022-10-12 05:48:00,,0826.0,4.99,0.00,28.5,26.5,00.0,37.5,30.2,17.5,0000.0,0011.78,0005.47,0004.29
2022-10-12 05:49:00,,0825.9,5.00,0.00,28.5,26.5,00.0,37.5,30.2,17.5,0000.0,0011.52,0005.46,0004.29
2022-10-12 05:50:00,,0825.9,4.99,0.00,28.4,26.5,00.0,37.4,30.1,17.5,0000.0,0011.36,0005.45,0004.27
2022-10-12 05:51:00,,0826.0,5.00,0.00,28.4,26.5,00.0,37.4,30.1,17.5,0000.0,0011.88,0005.46,0004.27
2022-10-12 05:52:00,,0825.9,4.99,0.00,28.4,26.6,00.0,37.4,30.1,17.5,0000.0,0011.76,0005.45,0004.26
2022-10-12 05:53:00,,0826.0,5.01,0.00,28.4,26.5,00.0,37.4,30.1,17.5,0000.0,0011.85,0005.42,0004.26
2022-10-12 05:54:00,,0825.9,5.01,0.00,28.4,26.5,00.0,37.4,30.1,17.5,0000.0,0012.13,0005.44,0004.25
2022-10-12 05:55:00,,0825.9,4.98,0.00,28.4,26.5,00.0,37.4,30.1,17.6,0000.0,0012.26,0005.44,0004.25
2022-10-12 05:56:00,,0825.9,5.01,0.00,28.4,26.6,00.0,37.3,30.1,17.6,0000.0,0012.96,0005.41,0004.26
2022-10-12 05:57:00,,0825.9,5.01,0.00,28.4,26.6,00.0,37.3,30.1,17.5,0000.0,0013.30,0005.42,0004.28
2022-10-12 05:58:00,,0826.0,4.99,0.00,28.4,26.6,00.0,37.3,30.1,17.5,0000.0,0013.64,0005.43,0004.30
2022-10-12 05:59:00,,0825.9,5.01,0.00,28.4,26.6,00.0,37.3,30.1,17.6,0000.0,0013.22,0005.39,0004.31
